This demonstration page uses our WeatherBlox Daily Observations layout. Learn more.

Left ArrowRight Arrow

34.74481, -87.66753

Hourly Observations for April 3, 2021

Temp ( °F °C ) Dew Point ( °F °C ) Humidity (%) Winds ( mph kmh ) Pressure ( in mb ) Visibility ( mi km ) Precip ( " mm )
12:53 am 00:53 Clear 39 3.9 30 -1.1 70 70 Calm 30.41 1030 10 16 0.00 0.00
1:53 am 01:53 Clear 37 2.8 29 -1.7 73 73 Calm 30.40 1029 10 16 0.00 0.00
2:53 am 02:53 Clear 38 3.3 30 -1.1 73 73 Calm 30.40 1030 10 16 0.00 0.00
3:53 am 03:53 Clear 35 1.7 30 -1.1 82 82 Calm 30.41 1030 10 16 0.00 0.00
4:53 am 04:53 Clear 35 1.7 29 -1.7 78 78 Calm 30.41 1030 10 16 0.00 0.00
5:53 am 05:53 Clear 35 1.7 29 -1.7 78 78 Calm 30.43 1030 10 16 0.00 0.00
6:53 am 06:53 Sunny 35 1.7 29 -1.7 78 78 Calm 30.45 1031 10 16 0.00 0.00
7:53 am 07:53 Sunny 38 3.3 33 0.6 83 83 Calm 30.46 1032 10 16 0.00 0.00
8:53 am 08:53 Sunny 45 7.2 30 -1.1 56 56 E 3 6 30.47 1032 10 16 0.00 0.00
9:53 am 09:53 Sunny 50 10 29 -1.7 44 44 SE 5 7 30.48 1032 10 16 0.00 0.00
10:53 am 10:53 Sunny 56 13.3 28 -2.2 34 34 VRB 3 6 30.46 1031 10 16 0.00 0.00
11:53 am 11:53 Sunny 59 15 24 -4.4 26 26 VRB 3 6 30.43 1031 10 16 0.00 0.00
12:53 pm 12:53 Sunny 62 16.7 25 -3.9 24 24 Calm 30.41 1030 10 16 0.00 0.00
1:53 pm 13:53 Sunny 64 17.8 28 -2.2 26 26 VRB 3 6 30.38 1029 10 16 0.00 0.00
2:53 pm 14:53 Sunny 66 18.9 26 -3.3 22 22 VRB 3 6 30.35 1028 10 16 0.00 0.00
3:53 pm 15:53 Sunny 68 20 26 -3.3 21 21 VRB 3 6 30.33 1027 10 16 0.00 0.00
4:53 pm 16:53 Sunny 68 20 27 -2.8 21 21 ENE 5 7 30.31 1027 10 16 0.00 0.00
5:53 pm 17:53 Sunny 67 19.4 29 -1.7 24 24 E 6 9 30.31 1027 10 16 0.00 0.00
6:53 pm 18:53 Sunny 63 17.2 29 -1.7 28 28 NE 5 7 30.31 1026 10 16 0.00 0.00
7:53 pm 19:53 Clear 58 14.4 30 -1.1 35 35 Calm 30.33 1027 10 16 0.00 0.00
8:53 pm 20:53 Clear 53 11.7 33 0.6 47 47 Calm 30.34 1028 10 16 0.00 0.00
9:53 pm 21:53 Clear 51 10.6 34 1.1 52 52 Calm 30.35 1028 10 16 0.00 0.00
10:53 pm 22:53 Clear 49 9.4 36 2.2 61 61 Calm 30.34 1027 10 16 0.00 0.00
11:53 pm 23:53 Clear 46 7.8 36 2.2 68 68 Calm 30.33 1027 10 16 0.00 0.00

Powered by AerisWeather